This demonstration page uses our WeatherBlox Daily Observations layout. Learn more.

Left ArrowRight Arrow

39.51506, -84.39828

Hourly Observations for February 2, 2016

Temp ( °F °C ) Dew Point ( °F °C ) Humidity (%) Winds ( mph kmh ) Pressure ( in mb ) Visibility ( mi km ) Precip ( " mm )
12:15 am 00:15 undefined 32 0 28 -2 87 87 Calm 30.15 1021 N/A 0.00 0.00
12:35 am 00:35 undefined 29 -1.4 26 -3.2 88 88 NNE 3 6 30.15 1021 N/A 0.00 0.00
12:55 am 00:55 undefined 30 -1.3 26 -3.2 87 87 NNE 3 6 30.15 1021 N/A 0.00 0.00
1:15 am 01:15 undefined 31 -0.5 28 -2.4 87 87 Calm 30.15 1021 N/A 0.00 0.00
1:35 am 01:35 undefined 29 -1.5 26 -3.2 88 88 Calm 30.18 1022 N/A 0.00 0.00
1:55 am 01:55 undefined 30 -1.3 27 -2.9 89 89 NE 3 6 30.18 1022 N/A 0.00 0.00
2:15 am 02:15 undefined 29 -1.5 26 -3.1 89 89 NNE 3 6 30.18 1022 N/A 0.00 0.00
2:35 am 02:35 undefined 29 -1.5 26 -3.1 89 89 NE 3 6 30.18 1022 N/A 0.00 0.00
2:55 am 02:55 undefined 30 -1.2 27 -2.9 88 88 Calm 30.15 1021 N/A 0.00 0.00
3:15 am 03:15 undefined 31 -0.6 28 -2.3 88 88 Calm 30.18 1022 N/A 0.00 0.00
3:35 am 03:35 undefined 32 -0.1 29 -1.7 89 89 ENE 3 6 30.18 1022 N/A 0.00 0.00
3:55 am 03:55 undefined 32 0 29 -1.7 88 88 Calm 30.18 1022 N/A 0.00 0.00
4:15 am 04:15 undefined 32 -0.2 28 -2 88 88 NE 3 6 30.18 1022 N/A 0.00 0.00
4:35 am 04:35 undefined 32 0 29 -1.8 88 88 Calm 30.18 1022 N/A 0.00 0.00
4:55 am 04:55 undefined 32 0 29 -1.7 88 88 Calm 30.18 1022 N/A 0.00 0.00
5:15 am 05:15 undefined 32 0.1 29 -1.4 90 90 Calm 30.18 1022 N/A 0.00 0.00
5:35 am 05:35 undefined 34 1.2 31 -0.5 89 89 Calm 30.18 1022 N/A 0.00 0.00
5:55 am 05:55 undefined 34 1.2 31 -0.5 89 89 NNE 9 15 30.15 1021 N/A 0.00 0.00
6:15 am 06:15 undefined 34 1.2 31 -0.6 88 88 NE 5 7 30.15 1021 N/A 0.00 0.00
6:35 am 06:35 undefined 34 1.2 31 -0.8 87 87 NE 6 9 30.15 1021 N/A 0.00 0.00
6:55 am 06:55 Clear 36 2 31 -0.3 85 85 ENE 5 7 30.15 1021 N/A 0.00 0.00
7:15 am 07:15 Clear 37 2.6 32 0 83 83 ENE 5 7 30.15 1021 N/A 0.00 0.00
7:35 am 07:35 Clear 37 2.6 32 0 83 83 NE 3 6 30.15 1021 N/A 0.00 0.00
7:55 am 07:55 Sunny 37 2.6 32 0 83 83 ENE 5 7 30.15 1021 N/A 0.00 0.00
8:15 am 08:15 Sunny 37 2.6 32 0 83 83 ENE 7 11 30.15 1021 N/A 0.00 0.00
8:35 am 08:35 Sunny 37 2.6 32 0 83 83 ENE 7 11 30.15 1021 N/A 0.00 0.00
8:55 am 08:55 Sunny 38 3.1 32 0.2 81 81 ENE 10 17 30.15 1021 N/A 0.00 0.00
9:15 am 09:15 Sunny 39 4 33 0.7 79 79 ENE 7 11 30.15 1021 N/A 0.00 0.00
9:35 am 09:35 Sunny 40 4.7 34 0.9 77 77 E 8 13 30.12 1020 N/A 0.00 0.00
9:55 am 09:55 Partly Cloudy 42 5.5 34 1.1 74 74 E 8 13 30.12 1020 10 16 0.00 0.00
10:15 am 10:15 Mostly Cloudy 42 5.6 34 1.2 74 74 E 7 11 30.12 1020 10 16 0.00 0.00
10:35 am 10:35 Cloudy 43 6.1 34 1.3 72 72 ESE 9 15 30.09 1019 10 16 0.00 0.00
10:55 am 10:55 Cloudy 44 6.8 35 1.6 70 70 E 7 11 30.09 1019 10 16 0.00 0.00
11:15 am 11:15 Cloudy 47 8.2 37 2.5 68 68 ESE 8 13 30.09 1019 10 16 0.00 0.00
11:35 am 11:35 Mostly Cloudy 49 9.6 38 3.2 65 65 E 9 15 30.06 1018 10 16 0.00 0.00
11:55 am 11:55 Partly Cloudy 49 9.6 36 2.1 60 60 E 10 17 30.03 1017 10 16 0.00 0.00
12:15 pm 12:15 Cloudy 49 9.6 37 2.6 62 62 E 9 15 30.03 1017 10 16 0.00 0.00
12:35 pm 12:35 Cloudy 52 11 38 3.2 59 59 E 8 13 29.97 1015 10 16 0.00 0.00
12:55 pm 12:55 Cloudy 52 11.2 38 3.3 59 59 ESE 9 15 29.97 1015 10 16 0.00 0.00
1:15 pm 13:15 Cloudy 55 12.5 39 4 56 56 ESE 12 19 29.94 1014 10 16 0.00 0.00
1:35 pm 13:35 Partly Cloudy 57 13.8 40 4.6 54 54 ESE 13 20 29.88 1012 N/A 0.00 0.00
1:55 pm 13:55 Mostly Cloudy 57 13.8 42 5.6 58 58 ESE 14 22 29.88 1012 N/A 0.00 0.00
2:15 pm 14:15 Partly Cloudy 57 13.8 42 5.5 58 58 ESE 9 15 29.83 1010 10 16 0.00 0.00
2:35 pm 14:35 Partly Cloudy 60 15.4 43 6.2 54 54 SSE 10 17 29.83 1010 10 16 0.00 0.00
2:55 pm 14:55 Cloudy 60 15.3 45 7.1 58 58 SE 8 13 29.83 1010 10 16 0.00 0.00
3:15 pm 15:15 Partly Cloudy 61 16 45 7 55 55 SE 8 13 29.80 1009 10 16 0.00 0.00
3:35 pm 15:35 Mostly Cloudy 61 16 46 7.5 57 57 SSE 16 26 29.80 1009 10 16 0.00 0.00
3:55 pm 15:55 Cloudy 61 16 46 7.8 58 58 SE 8 13 29.80 1009 10 16 0.00 0.00
4:15 pm 16:15 Cloudy with Light Rain 60 15.8 47 8.3 61 61 SSE 10 17 29.80 1009 10 16 0.00 0.00
4:35 pm 16:35 Cloudy with Heavy Rain 60 15.3 50 9.8 70 70 SSW 7 11 29.80 1009 10 16 0.00 0.00
4:55 pm 16:55 Cloudy 59 15.1 52 11 77 77 SE 7 11 29.77 1008 10 16 0.00 0.00
5:15 pm 17:15 Mostly Cloudy with Rain 57 13.8 50 10.1 79 79 ESE 5 7 29.77 1008 10 16 0.00 0.00
5:35 pm 17:35 Partly Cloudy 57 13.8 50 10.2 79 79 Calm 29.74 1007 10 16 0.00 0.00
5:55 pm 17:55 Mostly Cloudy 57 13.8 50 10.1 79 79 ESE 3 6 29.74 1007 10 16 0.00 0.00
6:15 pm 18:15 Cloudy 57 14 49 9.5 75 75 Calm 29.74 1007 10 16 0.00 0.00
6:35 pm 18:35 Cloudy with Light Rain 57 14.1 49 9.5 74 74 SE 5 7 29.74 1007 10 16 0.00 0.00
6:55 pm 18:55 Cloudy with Light Rain 60 15.3 51 10.4 73 73 SE 3 6 29.71 1006 10 16 0.00 0.00
7:15 pm 19:15 Mostly Cloudy with Rain 60 15.3 51 10.6 74 74 Calm 29.71 1006 10 16 0.00 0.00
7:35 pm 19:35 Cloudy with Light Rain 60 15.3 51 10.7 74 74 Calm 29.71 1006 10 16 0.00 0.00
7:55 pm 19:55 Cloudy with Heavy Rain 57 14.1 51 10.7 80 80 Calm 29.71 1006 5 8 0.00 0.00
8:15 pm 20:15 Cloudy with Rain 57 13.8 52 11.2 84 84 Calm 29.71 1006 5 8 0.00 0.00
8:35 pm 20:35 Cloudy with Heavy Rain 57 13.8 53 11.6 87 87 Calm 29.71 1006 3 5 0.00 0.00
8:55 pm 20:55 Cloudy with Rain 57 13.8 53 11.7 87 87 Calm 29.71 1006 5 8 0.00 0.00
9:15 pm 21:15 Cloudy with Heavy Rain 60 15.3 55 12.7 85 85 S 16 26 29.71 1006 7 11 0.00 0.00
9:35 pm 21:35 Cloudy with Rain 60 15.3 55 12.6 84 84 SSE 7 11 29.71 1006 7 11 0.00 0.00
9:55 pm 21:55 Cloudy with Rain 60 15.3 55 13 86 86 S 6 9 29.68 1005 5 8 0.00 0.00
10:15 pm 22:15 Cloudy with Light Rain 60 15.3 56 13.1 87 87 SE 8 13 29.68 1005 7 11 0.00 0.00
10:35 pm 22:35 Cloudy with Light Rain 60 15.3 56 13.2 87 87 SSE 8 13 29.65 1004 7 11 0.00 0.00
10:55 pm 22:55 Cloudy with Light Rain 60 15.3 55 13 86 86 S 9 15 29.62 1003 7 11 0.00 0.00
11:15 pm 23:15 Cloudy with Rain 60 15.4 55 13 86 86 S 10 17 29.62 1003 5 8 0.00 0.00
11:35 pm 23:35 Cloudy with Light Rain 60 15.3 55 13 86 86 SSE 14 22 29.59 1002 7 11 0.00 0.00
11:55 pm 23:55 Cloudy with Rain 60 15.6 55 13 85 85 S 16 26 29.59 1002 7 11 0.00 0.00

Powered by AerisWeather